Regional Weather Roundup
Issued by NWS San Angelo, TX

Home | Current Version | Previous Version | Text Only | Print | Product List | Glossary On
Versions: 1 2 3 4 5 6 7 8 9 10 11 12 13 14 15 16 17 18 19 20 21 22 23 24 25 26 27 28 29 30 31 32 33 34 35 36 37 38 39 40 41 42 43 44 45 46 47 48 49 50
000
ASUS44 KSJT 262102
RWRSJT
WEST CENTRAL TEXAS REGIONAL WEATHER ROUNDUP
NATIONAL WEATHER SERVICE SAN ANGELO TX
300 PM CST MON JAN 26 2015

NOTE: "FAIR" INDICATES FEW OR NO CLOUDS BELOW 12,000 FEET WITH NO
SIGNIFICANT WEATHER AND/OR OBSTRUCTIONS TO VISIBILITY.

TXZ049-054-064>066-071>073-076>078-098-099-113-114-127-128-139-140-
154-155-168>170-262200
...LOCATIONS ACROSS WEST CENTRAL TEXAS...

CITY           SKY/WX    TMP DP  RH WIND       PRES   REMARKS
SAN ANGELO     PTSUNNY   68  37  32 NW8       30.20F
ABILENE        MOSUNNY   72  32  23 W13       30.17F
DYESS AFB      MOSUNNY   70  36  28 W9        30.16F
JUNCTION       CLOUDY    67  33  28 W7        30.21F
SWEETWATER     NOT AVBL
BROWNWOOD      MOSUNNY   72  32  23 W12       30.17F
COLEMAN        NOT AVBL
SONORA         NOT AVBL
OZONA          NOT AVBL
BRADY          SUNNY     70  36  28 W13       30.19F
$$

TEXAS PANHANDLE/OKLAHOMA PANHANDLE

CITY           SKY/WX    TMP DP  RH WIND       PRES   REMARKS
AMARILLO       SUNNY     70  32  24 NW12      30.21F
BORGER         SUNNY     72  29  20 NW12G18   30.18S
CANADIAN       SUNNY     74  29  19 N16G23    30.12S
DALHART        SUNNY     68  31  25 N8        30.24S
DUMAS          CLEAR     64  39  39 W8        30.21F
GUYMON         NOT AVBL
HEREFORD       NOT AVBL
PAMPA          NOT AVBL
PERRYTON       NOT AVBL
$$

SOUTHERN PANHANDLE/SOUTH PLAINS/ROLLING PLAINS

CITY           SKY/WX    TMP DP  RH WIND       PRES   REMARKS
LUBBOCK        PTSUNNY   73  25  16 W17       30.19F
SNYDER         NOT AVBL
CHILDRESS      SUNNY     76  33  21 NW12      30.12F
SEMINOLE       NOT AVBL
$$

PERMIAN BASIN

CITY           SKY/WX    TMP DP  RH WIND       PRES   REMARKS
MIDLAND        MOSUNNY   66  32  28 W5        30.23F
ODESSA         PTSUNNY   64  29  26 W6        30.23F
WINK           PTSUNNY   62  29  28 VRB5      30.22F
$$

FAR WEST/SOUTHWEST MOUNTAINS/TRANS PECOS

CITY           SKY/WX    TMP DP  RH WIND       PRES   REMARKS
ALPINE         NOT AVBL
DRYDEN           N/A     66  31  27 VRB6      30.21F
EL PASO        PTSUNNY   58  26  29 NW5       30.26F
FORT STOCKTON  CLOUDY    59  37  44 CALM      30.24F
GUADALUPE PASS NOT AVBL
MARFA          CLOUDY    54  28  37 S3        30.31F
PECOS          NOT AVBL
$$

DALLAS/FORT WORTH METROPLEX

CITY           SKY/WX    TMP DP  RH WIND       PRES   REMARKS
DFW AIRPORT    MOSUNNY   70  37  29 SW9       30.08F
FTW MEACHAM    SUNNY     72  39  30 SW9       30.09F
DAL-EXECUTIVE  SUNNY     72  34  24 W9        30.09F
GRAND PRAIRIE  SUNNY     68  37  32 SW12      30.11F
ADDISON        SUNNY     70  34  26 SW7       30.10F
MESQUITE       CLEAR     68  34  28 SW7       30.09F
LANCASTER      CLEAR     69  34  27 SW7       30.11F
$$

NORTH CENTRAL TEXAS

CITY           SKY/WX    TMP DP  RH WIND       PRES   REMARKS
SHRMAN/DENISON CLEAR     70  42  36 SW12      30.08F
GAINESVILLE    NOT AVBL
BRIDGEPORT     CLEAR     73  42  32 W14G20    30.12F
DENTON         SUNNY     71  37  28 W12       30.08F
WAXAHACHIE     CLEAR     69  40  35 W8        30.12F
GRANBURY       NOT AVBL
$$

WESTERN NORTH TEXAS

CITY           SKY/WX    TMP DP  RH WIND       PRES   REMARKS
WICHITA FALLS  SUNNY     72  39  30 SW12      30.08F
VERNON         NOT AVBL
BRECKENRIDGE   NOT AVBL
COMANCHE       SUNNY     73  34  24 W13       30.16F
$$

CENTRAL AND SOUTH CENTRAL TEXAS

CITY           SKY/WX    TMP DP  RH WIND       PRES   REMARKS
AUSTIN/BERGSTM PTSUNNY   73  34  23 NW8       30.16F
WACO           SUNNY     73  36  25 W8        30.13F
HILLSBORO      NOT AVBL
TEMPLE         MOSUNNY   72  34  25 W14       30.13F
KILLEEN-GRAY   PTSUNNY   71  31  22 W13       30.16F
FORT HOOD      NOT AVBL
GEORGETOWN     SUNNY     73  34  23 W12G17    30.15F
LAGO VISTA     FAIR      70  35  27 W9        30.18F
SAN MARCOS     SUNNY     70  43  37 S8        30.18F
NEW BRAUNFELS  CLOUDY    73  39  29 VRB3      30.16F
RANDOLPH AFB   CLOUDY    70  35  27 W9        30.18F
SAN ANTONIO    CLOUDY    70  37  29 SW8       30.18F
STINSON        PTSUNNY   75  33  21 W12       30.16F
PLEASANTON     NOT AVBL
LA GRANGE      NOT AVBL
GIDDINGS       NOT AVBL
$$

EAST TEXAS

CITY           SKY/WX    TMP DP  RH WIND       PRES   REMARKS
PARIS          SUNNY     64  37  36 SW10G17   30.07F
CLARKSVILLE    NOT AVBL
TYLER          SUNNY     67  32  27 W6        30.10F
LONGVIEW       SUNNY     66  32  28 W9        30.09F
PALESTINE      CLEAR     67  34  29 W8        30.14F
NACOGDOCHES    SUNNY     64  34  32 SW3       30.13F
$$

TEXAS HILL COUNTRY AND EDWARDS PLATEAU

CITY           SKY/WX    TMP DP  RH WIND       PRES   REMARKS
LLANO          NOT AVBL
HORSESHOE BAY  FAIR      71  32  23 NW10      30.18F
KERRVILLE      CLOUDY    72  31  22 W5        30.20F
FREDERICKSBRG  NOT AVBL
ROCKSPRINGS    NOT AVBL
HONDO          CLOUDY    73  34  23 W13       30.21F
UVALDE         MOCLDY    70  33  26 W7        30.22F
DEL RIO        CLOUDY    69  34  27 CALM      30.20F
$$

SOUTHEAST TEXAS

CITY           SKY/WX    TMP DP  RH WIND       PRES   REMARKS
COLLEGE STN    MOSUNNY   68  34  28 W7        30.16F
CALDWELL       NOT AVBL
CROCKETT       NOT AVBL
BRENHAM        MOSUNNY   71  36  27 NW10      30.17F
HUNTSVILLE     SUNNY     65  33  30 W8        30.15F
CONROE         MOSUNNY   63  34  33 W9        30.16F
HOUSTON BUSH   PTSUNNY   65  34  31 W6        30.17F
HOUSTON HOBBY  PTSUNNY   67  32  27 W9        30.16F
PERLAND        MOSUNNY   67  31  26 VRB6      30.18F
WHARTON        NOT AVBL
$$

THE UPPER TEXAS COAST

CITY           SKY/WX    TMP DP  RH WIND       PRES   REMARKS
ORANGE         CLEAR     66  33  29 NW9       30.15S
PORT ARTHUR    SUNNY     68  35  29 W9        30.13F
GALVESTON      MOSUNNY   65  39  38 VRB7      30.17F
ANGLETON       NOT AVBL
BAY CITY       MOCLDY    68  38  34 N6        30.16F
$$

TEXAS COASTAL BEND, RIO GRANDE PLAINS DEEP SOUTH TEXAS

CITY           SKY/WX    TMP DP  RH WIND       PRES   REMARKS
VICTORIA       PTSUNNY   72  39  30 NW3       30.17F
BEEVILLE       FAIR      73  37  26 NW5       30.19F
ROCKPORT       PTSUNNY   70  41  34 SE7       30.18F
PORT ARANSAS   NOT AVBL
PORT LAVACA    MOCLDY    69  41  35 NW3       30.17F
CORPUS CHRISTI PTSUNNY   72  38  29 W5        30.18F
KINGSVILLE NAS PTSUNNY   76  39  26 SE5       30.19F
COTULLA        PTSUNNY   77  34  21 W9        30.19F
LAREDO         SUNNY     73  36  25 CALM      30.23F
BROWNSVILLE    MOSUNNY   76  28  17 VRB3      30.21F
PORT ISABEL    MOSUNNY   71  34  25 SE6       30.21F
HEBBRONVILLE   NOT AVBL
MCALLEN        MOSUNNY   75  36  24 VRB3      30.21F
WESLACO        NOT AVBL
FALFURRIAS     MOCLDY    76  26  15 CALM      30.19F
EDINBURG       NOT AVBL
$$


USA.gov is the U.S. government's official web portal to all federal, state and local government web resources and services.